,,,PA_Meas_PMT16A,,PR_Meas_QMR101_102,,RH_Meas_QMH101,,SR_Meas_QMS101,,TA_Meas_QMH101,,GenWind,,GenWind,
date,time,status,PA,status,PR,status,RH,status,SR,status,TA,status,DirAvg,status,SpdAvg,
2011-01-18, 00:00:04,VALID,1009.73,VALID,0,VALID,100.889,VALID,0,VALID,23.5966,VALID,319,VALID,0,
2011-01-18, 00:01:04,VALID,1009.75,VALID,0,VALID,100.889,VALID,0,VALID,23.5771,VALID,319,VALID,0,
2011-01-18, 00:02:04,VALID,1009.73,VALID,0,VALID,100.873,VALID,0,VALID,23.5966,VALID,319,VALID,0,
2011-01-18, 00:03:04,VALID,1009.73,VALID,0,VALID,100.995,VALID,0,VALID,23.5771,VALID,319,VALID,0,
2011-01-18, 00:04:04,VALID,1009.72,VALID,0,VALID,100.957,VALID,0,VALID,23.5576,VALID,319,VALID,0,
2011-01-18, 00:05:04,VALID,1009.71,VALID,0,VALID,100.98,VALID,0,VALID,23.5381,VALID,319,VALID,0,
2011-01-18, 00:06:04,VALID,1009.68,VALID,0,VALID,101.072,VALID,0,VALID,23.5381,VALID,319,VALID,0,
2011-01-18, 00:07:04,VALID,1009.67,VALID,0,VALID,101.323,VALID,0,VALID,23.5381,VALID,319,VALID,0,
2011-01-18, 00:08:04,VALID,1009.65,VALID,0,VALID,101.4,VALID,0,VALID,23.5186,VALID,319,VALID,0,
2011-01-18, 00:09:04,VALID,1009.63,VALID,0,VALID,101.453,VALID,0,VALID,23.4797,VALID,319,VALID,0,
2011-01-18, 00:10:04,VALID,1009.64,VALID,0,VALID,101.514,VALID,0,VALID,23.4797,VALID,319,VALID,0,
2011-01-18, 00:11:04,VALID,1009.62,VALID,0,VALID,101.567,VALID,0,VALID,23.462,VALID,319,VALID,0,
2011-01-18, 00:12:04,VALID,1009.61,VALID,0,VALID,101.583,VALID,0,VALID,23.4212,VALID,319,VALID,0,
2011-01-18, 00:13:04,VALID,1009.63,VALID,0,VALID,101.59,VALID,0,VALID,23.4017,VALID,319,VALID,0,
2011-01-18, 00:14:04,VALID,1009.59,VALID,0,VALID,101.644,VALID,0,VALID,23.4017,VALID,319,VALID,0,
2011-01-18, 00:15:04,VALID,1009.57,VALID,0,VALID,101.689,VALID,0,VALID,23.4017,VALID,319,VALID,0,
2011-01-18, 00:16:04,VALID,1009.56,VALID,0,VALID,101.773,VALID,0,VALID,23.4017,VALID,319,VALID,0,
2011-01-18, 00:17:04,VALID,1009.55,VALID,0,VALID,101.819,VALID,0,VALID,23.4017,VALID,319,VALID,0,
2011-01-18, 00:18:04,VALID,1009.54,VALID,0,VALID,101.781,VALID,0,VALID,23.3823,VALID,319,VALID,0,
2011-01-18, 00:19:04,VALID,1009.54,VALID,0,VALID,101.789,VALID,0,VALID,23.384,VALID,319,VALID,0,
2011-01-18, 00:20:04,VALID,1009.54,VALID,0,VALID,101.865,VALID,0,VALID,23.3433,VALID,319,VALID,0,
2011-01-18, 00:21:04,VALID,1009.51,VALID,0,VALID,102.01,VALID,0,VALID,23.3433,VALID,319,VALID,0,
2011-01-18, 00:22:04,VALID,1009.53,VALID,0,VALID,102.086,VALID,0,VALID,23.3238,VALID,319,VALID,0,
2011-01-18, 00:23:04,VALID,1009.5,VALID,0,VALID,102.132,VALID,0,VALID,23.2848,VALID,319,VALID,0,
2011-01-18, 00:24:04,VALID,1009.48,VALID,0,VALID,102.216,VALID,0,VALID,23.2654,VALID,319,VALID,0,
2011-01-18, 00:25:04,VALID,1009.45,VALID,0,VALID,102.368,VALID,0,VALID,23.2654,VALID,319,VALID,0,
2011-01-18, 00:26:04,VALID,1009.46,VALID,0,VALID,102.46,VALID,0,VALID,23.2654,VALID,319,VALID,0,
2011-01-18, 00:27:04,VALID,1009.41,VALID,0,VALID,102.444,VALID,0,VALID,23.2459,VALID,319,VALID,0,
2011-01-18, 00:28:04,VALID,1009.42,VALID,0,VALID,102.467,VALID,0,VALID,23.2264,VALID,319,VALID,0,
2011-01-18, 00:29:04,VALID,1009.43,VALID,0,VALID,102.536,VALID,0,VALID,23.2069,VALID,319,VALID,0,
2011-01-18, 00:30:04,VALID,1009.39,VALID,0,VALID,102.566,VALID,0,VALID,23.2069,VALID,319,VALID,0,
2011-01-18, 00:31:04,VALID,1009.37,VALID,0,VALID,102.612,VALID,0,VALID,23.1874,VALID,319,VALID,0,
2011-01-18, 00:32:04,VALID,1009.34,VALID,0,VALID,102.719,VALID,0,VALID,23.1679,VALID,319,VALID,0,
2011-01-18, 00:33:04,VALID,1009.36,VALID,0,VALID,102.765,VALID,0,VALID,23.1485,VALID,319,VALID,0,
2011-01-18, 00:34:04,VALID,1009.38,VALID,0,VALID,102.826,VALID,0,VALID,23.1502,VALID,319,VALID,0,
2011-01-18, 00:35:04,VALID,1009.37,VALID,0,VALID,102.864,VALID,0,VALID,23.1095,VALID,319,VALID,0,
2011-01-18, 00:36:04,VALID,1009.38,VALID,0,VALID,102.894,VALID,0,VALID,23.09,VALID,319,VALID,0,
2011-01-18, 00:37:04,VALID,1009.38,VALID,0,VALID,102.963,VALID,0,VALID,23.09,VALID,319,VALID,0,
2011-01-18, 00:38:04,VALID,1009.36,VALID,0,VALID,103.054,VALID,0,VALID,23.09,VALID,319,VALID,0,
2011-01-18, 00:39:04,VALID,1009.36,VALID,0,VALID,103.146,VALID,0,VALID,23.1095,VALID,319,VALID,0,
2011-01-18, 00:40:04,VALID,1009.35,VALID,0,VALID,103.154,VALID,0,VALID,23.09,VALID,319,VALID,0,
2011-01-18, 00:41:04,VALID,1009.36,VALID,0,VALID,103.199,VALID,0,VALID,23.09,VALID,319,VALID,0,
2011-01-18, 00:42:04,VALID,1009.31,VALID,0,VALID,103.215,VALID,0,VALID,23.0493,VALID,319,VALID,0,
2011-01-18, 00:43:04,VALID,1009.34,VALID,0,VALID,103.169,VALID,0,VALID,23.0511,VALID,319,VALID,0,
2011-01-18, 00:44:04,VALID,1009.3,VALID,0,VALID,103.23,VALID,0,VALID,23.0511,VALID,319,VALID,0,
2011-01-18, 00:45:04,VALID,1009.31,VALID,0,VALID,103.245,VALID,0,VALID,23.0316,VALID,319,VALID,0,
2011-01-18, 00:46:04,VALID,1009.27,VALID,0,VALID,103.26,VALID,0,VALID,23.0316,VALID,319,VALID,0,
2011-01-18, 00:47:04,VALID,1009.25,VALID,0,VALID,103.268,VALID,0,VALID,23.0316,VALID,319,VALID,0,
2011-01-18, 00:48:04,VALID,1009.26,VALID,0,VALID,103.253,VALID,0,VALID,22.9926,VALID,319,VALID,0,
2011-01-18, 00:49:04,VALID,1009.27,VALID,0,VALID,103.253,VALID,0,VALID,22.9926,VALID,319,VALID,0,
2011-01-18, 00:50:04,VALID,1009.22,VALID,0,VALID,103.237,VALID,0,VALID,22.9536,VALID,319,VALID,0,
2011-01-18, 00:51:04,VALID,1009.24,VALID,0,VALID,103.276,VALID,0,VALID,22.9731,VALID,319,VALID,0,
2011-01-18, 00:52:04,VALID,1009.24,VALID,0,VALID,103.329,VALID,0,VALID,22.9536,VALID,319,VALID,0,
2011-01-18, 00:53:04,VALID,1009.22,VALID,0,VALID,103.329,VALID,0.105969,VALID,22.9519,VALID,319,VALID,0,
2011-01-18, 00:54:04,VALID,1009.21,VALID,0,VALID,103.321,VALID,0.105969,VALID,22.9324,VALID,319,VALID,0,
2011-01-18, 00:55:04,VALID,1009.21,VALID,0,VALID,103.268,VALID,0.105969,VALID,22.9324,VALID,319,VALID,0,
2011-01-18, 00:56:04,VALID,1009.21,VALID,0,VALID,103.291,VALID,0,VALID,22.8952,VALID,319,VALID,0,
2011-01-18, 00:57:04,VALID,1009.2,VALID,0,VALID,103.314,VALID,0,VALID,22.8952,VALID,319,VALID,0,
2011-01-18, 00:58:04,VALID,1009.21,VALID,0,VALID,103.344,VALID,0,VALID,22.8952,VALID,319,VALID,0,
2011-01-18, 00:59:04,VALID,1009.2,VALID,0,VALID,103.39,VALID,0,VALID,22.8952,VALID,319,VALID,0,
2011-01-18, 01:00:04,VALID,1009.21,VALID,0,VALID,103.413,VALID,0,VALID,22.9147,VALID,319,VALID,0,
2011-01-18, 01:01:04,VALID,1009.21,VALID,0,VALID,103.42,VALID,0,VALID,22.8952,VALID,319,VALID,0,
2011-01-18, 01:02:04,VALID,1009.19,VALID,0,VALID,103.39,VALID,0,VALID,22.8952,VALID,319,VALID,0,
2011-01-18, 01:03:04,VALID,1009.16,VALID,0,VALID,103.405,VALID,0,VALID,22.8562,VALID,319,VALID,0,
2011-01-18, 01:04:04,VALID,1009.17,VALID,0,VALID,103.375,VALID,0,VALID,22.8562,VALID,319,VALID,0,
2011-01-18, 01:05:04,VALID,1009.14,VALID,0,VALID,103.382,VALID,0,VALID,22.8562,VALID,319,VALID,0,
2011-01-18, 01:06:04,VALID,1009.14,VALID,0,VALID,103.405,VALID,0,VALID,22.8368,VALID,319,VALID,0,
2011-01-18, 01:07:04,VALID,1009.12,VALID,0,VALID,103.398,VALID,0,VALID,22.8173,VALID,319,VALID,0,
2011-01-18, 01:08:04,VALID,1009.11,VALID,0,VALID,103.413,VALID,0,VALID,22.7783,VALID,319,VALID,0,
2011-01-18, 01:09:04,VALID,1009.06,VALID,0,VALID,103.405,VALID,0,VALID,22.7588,VALID,319,VALID,0,
2011-01-18, 01:10:04,VALID,1009.06,VALID,0,VALID,103.459,VALID,0,VALID,22.7588,VALID,319,VALID,0,
2011-01-18, 01:11:04,VALID,1009.08,VALID,0,VALID,103.466,VALID,0,VALID,22.7394,VALID,319,VALID,0,
2011-01-18, 01:12:04,VALID,1009.09,VALID,0,VALID,103.52,VALID,0,VALID,22.6987,VALID,319,VALID,0,
2011-01-18, 01:13:04,VALID,1009.06,VALID,0,VALID,103.558,VALID,0,VALID,22.7199,VALID,319,VALID,0,
2011-01-18, 01:14:04,VALID,1009.05,VALID,0,VALID,103.596,VALID,0,VALID,22.7004,VALID,319,VALID,0,
2011-01-18, 01:15:04,VALID,1009.04,VALID,0,VALID,103.603,VALID,0,VALID,22.6809,VALID,319,VALID,0,
2011-01-18, 01:16:04,VALID,1009.01,VALID,0,VALID,103.619,VALID,0,VALID,22.6809,VALID,319,VALID,0,
2011-01-18, 01:17:04,VALID,1009.02,VALID,0,VALID,103.634,VALID,0,VALID,22.642,VALID,319,VALID,0,
2011-01-18, 01:18:04,VALID,1009.01,VALID,0,VALID,103.626,VALID,0,VALID,22.642,VALID,319,VALID,0,
2011-01-18, 01:19:04,VALID,1009,VALID,0,VALID,103.687,VALID,0.105969,VALID,22.6597,VALID,319,VALID,0,
2011-01-18, 01:20:04,VALID,1008.98,VALID,0,VALID,103.741,VALID,0,VALID,22.7004,VALID,319,VALID,0,
2011-01-18, 01:21:04,VALID,1008.99,VALID,0,VALID,103.809,VALID,0,VALID,22.7199,VALID,319,VALID,0,
2011-01-18, 01:22:04,VALID,1008.98,VALID,0,VALID,103.809,VALID,0,VALID,22.7199,VALID,319,VALID,0,
2011-01-18, 01:23:04,VALID,1008.98,VALID,0,VALID,103.817,VALID,0,VALID,22.7004,VALID,319,VALID,0,
2011-01-18, 01:24:04,VALID,1008.96,VALID,0,VALID,103.87,VALID,0,VALID,22.7004,VALID,319,VALID,0,
2011-01-18, 01:25:04,VALID,1008.98,VALID,0,VALID,103.855,VALID,0,VALID,22.7004,VALID,319,VALID,0,
2011-01-18, 01:26:04,VALID,1008.95,VALID,0,VALID,103.878,VALID,0,VALID,22.7004,VALID,319,VALID,0,
2011-01-18, 01:27:04,VALID,1008.93,VALID,0,VALID,103.901,VALID,0,VALID,22.7004,VALID,319,VALID,0,
2011-01-18, 01:28:04,VALID,1008.95,VALID,0,VALID,103.893,VALID,0,VALID,22.7004,VALID,319,VALID,0,
2011-01-18, 01:29:04,VALID,1008.92,VALID,0,VALID,103.916,VALID,0,VALID,22.7004,VALID,319,VALID,0,
2011-01-18, 01:30:04,VALID,1008.93,VALID,0,VALID,103.909,VALID,0,VALID,22.7004,VALID,319,VALID,0,
2011-01-18, 01:31:04,VALID,1008.93,VALID,0,VALID,103.931,VALID,0,VALID,22.7004,VALID,319,VALID,0,
2011-01-18, 01:32:04,VALID,1008.93,VALID,0,VALID,103.954,VALID,0,VALID,22.6809,VALID,319,VALID,0,
2011-01-18, 01:33:04,VALID,1008.89,VALID,0,VALID,103.931,VALID,0,VALID,22.6614,VALID,319,VALID,0,
2011-01-18, 01:34:04,VALID,1008.92,VALID,0,VALID,103.924,VALID,0,VALID,22.6614,VALID,319,VALID,0,
2011-01-18, 01:35:04,VALID,1008.92,VALID,0,VALID,103.931,VALID,0,VALID,22.6614,VALID,319,VALID,0,
2011-01-18, 01:36:04,VALID,1008.91,VALID,0,VALID,103.947,VALID,0.105969,VALID,22.642,VALID,319,VALID,0,
2011-01-18, 01:37:04,VALID,1008.89,VALID,0,VALID,103.954,VALID,0,VALID,22.642,VALID,319,VALID,0,
2011-01-18, 01:38:04,VALID,1008.89,VALID,0,VALID,103.97,VALID,0,VALID,22.6614,VALID,319,VALID,0,
2011-01-18, 01:39:04,VALID,1008.88,VALID,0,VALID,103.97,VALID,0,VALID,22.6614,VALID,319,VALID,0,
2011-01-18, 01:40:04,VALID,1008.88,VALID,0,VALID,103.992,VALID,0,VALID,22.6632,VALID,319,VALID,0,
2011-01-18, 01:41:04,VALID,1008.87,VALID,0,VALID,104,VALID,0,VALID,22.642,VALID,319,VALID,0,
2011-01-18, 01:42:04,VALID,1008.86,VALID,0,VALID,103.992,VALID,0,VALID,22.6225,VALID,319,VALID,0,
2011-01-18, 01:43:04,VALID,1008.89,VALID,0,VALID,104,VALID,0,VALID,22.6225,VALID,319,VALID,0,
2011-01-18, 01:44:04,VALID,1008.88,VALID,0,VALID,103.992,VALID,0,VALID,22.603,VALID,319,VALID,0,
2011-01-18, 01:45:04,VALID,1008.89,VALID,0,VALID,104,VALID,0,VALID,22.6047,VALID,319,VALID,0,
2011-01-18, 01:46:04,VALID,1008.88,VALID,0,VALID,104,VALID,0,VALID,22.5835,VALID,319,VALID,0,
2011-01-18, 01:47:04,VALID,1008.86,VALID,0,VALID,104,VALID,0,VALID,22.564,VALID,319,VALID,0,
2011-01-18, 01:48:04,VALID,1008.85,VALID,0,VALID,104,VALID,0,VALID,22.5446,VALID,319,VALID,0,
2011-01-18, 01:49:04,VALID,1008.82,VALID,0,VALID,104,VALID,0,VALID,22.5446,VALID,319,VALID,0,
2011-01-18, 01:50:04,VALID,1008.81,VALID,0,VALID,104,VALID,0,VALID,22.5658,VALID,319,VALID,0,
2011-01-18, 01:51:04,VALID,1008.81,VALID,0,VALID,104,VALID,0,VALID,22.5251,VALID,319,VALID,0,
2011-01-18, 01:52:04,VALID,1008.79,VALID,0,VALID,104,VALID,0,VALID,22.5251,VALID,319,VALID,0,
2011-01-18, 01:53:04,VALID,1008.78,VALID,0,VALID,104,VALID,0,VALID,22.5251,VALID,319,VALID,0,
2011-01-18, 01:54:04,VALID,1008.76,VALID,0,VALID,104,VALID,0,VALID,22.5268,VALID,319,VALID,0,
2011-01-18, 01:55:04,VALID,1008.77,VALID,0,VALID,104,VALID,0,VALID,22.4861,VALID,319,VALID,0,
2011-01-18, 01:56:04,VALID,1008.76,VALID,0,VALID,104,VALID,0,VALID,22.4861,VALID,319,VALID,0,
2011-01-18, 01:57:04,VALID,1008.75,VALID,0,VALID,104,VALID,0,VALID,22.4861,VALID,319,VALID,0,
2011-01-18, 01:58:04,VALID,1008.74,VALID,0,VALID,104,VALID,0,VALID,22.4667,VALID,319,VALID,0,
2011-01-18, 01:59:04,VALID,1008.72,VALID,0,VALID,104,VALID,0,VALID,22.4472,VALID,319,VALID,0,
2011-01-18, 02:00:04,VALID,1008.7,VALID,0,VALID,104,VALID,0,VALID,22.4472,VALID,319,VALID,0,
2011-01-18, 02:01:04,VALID,1008.7,VALID,0,VALID,104,VALID,0,VALID,22.4277,VALID,319,VALID,0,
2011-01-18, 02:02:04,VALID,1008.67,VALID,0,VALID,104,VALID,0,VALID,22.4277,VALID,319,VALID,0,
2011-01-18, 02:03:04,VALID,1008.66,VALID,0,VALID,104,VALID,0,VALID,22.4099,VALID,319,VALID,0,
2011-01-18, 02:04:04,VALID,1008.63,VALID,0,VALID,104,VALID,0,VALID,22.4082,VALID,319,VALID,0,
2011-01-18, 02:05:04,VALID,1008.61,VALID,0,VALID,104,VALID,0,VALID,22.4294,VALID,319,VALID,0,
2011-01-18, 02:06:04,VALID,1008.61,VALID,0,VALID,104,VALID,0,VALID,22.4082,VALID,319,VALID,0,
2011-01-18, 02:07:04,VALID,1008.57,VALID,0,VALID,104,VALID,0,VALID,22.4082,VALID,319,VALID,0,
2011-01-18, 02:08:04,VALID,1008.56,VALID,0,VALID,104,VALID,0,VALID,22.4082,VALID,319,VALID,0,
2011-01-18, 02:09:04,VALID,1008.56,VALID,0,VALID,104,VALID,0,VALID,22.3693,VALID,319,VALID,0,
2011-01-18, 02:10:04,VALID,1008.5,VALID,0,VALID,104,VALID,0,VALID,22.3693,VALID,319,VALID,0,
2011-01-18, 02:11:04,VALID,1008.53,VALID,0,VALID,104,VALID,0,VALID,22.3693,VALID,319,VALID,0,
2011-01-18, 02:12:04,VALID,1008.51,VALID,0,VALID,104,VALID,0,VALID,22.3498,VALID,319,VALID,0,
2011-01-18, 02:13:04,VALID,1008.53,VALID,0,VALID,104,VALID,0,VALID,22.3498,VALID,319,VALID,0,
2011-01-18, 02:14:04,VALID,1008.53,VALID,0,VALID,104,VALID,0,VALID,22.3904,VALID,319,VALID,0,
2011-01-18, 02:15:04,VALID,1008.55,VALID,0,VALID,104,VALID,0,VALID,22.3693,VALID,319,VALID,0,
2011-01-18, 02:16:04,VALID,1008.57,VALID,0,VALID,104,VALID,0,VALID,22.3693,VALID,319,VALID,0,
2011-01-18, 02:17:04,VALID,1008.56,VALID,0,VALID,104,VALID,0,VALID,22.3693,VALID,319,VALID,0,
2011-01-18, 02:18:04,VALID,1008.6,VALID,0,VALID,104,VALID,0,VALID,22.3498,VALID,319,VALID,0,
2011-01-18, 02:19:04,VALID,1008.59,VALID,0,VALID,104,VALID,0,VALID,22.3904,VALID,319,VALID,0,
2011-01-18, 02:20:04,VALID,1008.57,VALID,0,VALID,104,VALID,0,VALID,22.3498,VALID,319,VALID,0,
2011-01-18, 02:21:04,VALID,1008.56,VALID,0,VALID,104,VALID,0,VALID,22.3498,VALID,319,VALID,0,
2011-01-18, 02:22:04,VALID,1008.55,VALID,0,VALID,104,VALID,0,VALID,22.3515,VALID,319,VALID,0,
2011-01-18, 02:23:04,VALID,1008.57,VALID,0,VALID,104,VALID,0,VALID,22.3498,VALID,319,VALID,0,
2011-01-18, 02:24:04,VALID,1008.55,VALID,0,VALID,104,VALID,0,VALID,22.3108,VALID,319,VALID,0,
2011-01-18, 02:25:04,VALID,1008.52,VALID,0,VALID,104,VALID,0,VALID,22.3108,VALID,319,VALID,0,
2011-01-18, 02:26:04,VALID,1008.51,VALID,0,VALID,104,VALID,0,VALID,22.2914,VALID,319,VALID,0,
2011-01-18, 02:27:04,VALID,1008.5,VALID,0,VALID,104,VALID,0,VALID,22.2719,VALID,319,VALID,0,
2011-01-18, 02:28:04,VALID,1008.5,VALID,0,VALID,104,VALID,0,VALID,22.2914,VALID,319,VALID,0,
2011-01-18, 02:29:04,VALID,1008.48,VALID,0,VALID,104,VALID,0,VALID,22.2897,VALID,319,VALID,0,
2011-01-18, 02:30:04,VALID,1008.49,VALID,0,VALID,104,VALID,0,VALID,22.2914,VALID,319,VALID,0,
2011-01-18, 02:31:04,VALID,1008.48,VALID,0,VALID,104,VALID,0,VALID,22.2914,VALID,319,VALID,0,
2011-01-18, 02:32:04,VALID,1008.49,VALID,0,VALID,104,VALID,0,VALID,22.3108,VALID,319,VALID,0,
2011-01-18, 02:33:04,VALID,1008.48,VALID,0,VALID,104,VALID,0,VALID,22.2914,VALID,319,VALID,0,
2011-01-18, 02:34:04,VALID,1008.46,VALID,0,VALID,104,VALID,0,VALID,22.2507,VALID,319,VALID,0,
2011-01-18, 02:35:04,VALID,1008.48,VALID,0,VALID,104,VALID,0,VALID,22.2524,VALID,319,VALID,0,
2011-01-18, 02:36:04,VALID,1008.46,VALID,0,VALID,104,VALID,0,VALID,22.2524,VALID,319,VALID,0,
2011-01-18, 02:37:04,VALID,1008.44,VALID,0,VALID,104,VALID,0,VALID,22.2329,VALID,319,VALID,0,
2011-01-18, 02:38:04,VALID,1008.44,VALID,0,VALID,104,VALID,0,VALID,22.2134,VALID,319,VALID,0,
2011-01-18, 02:39:04,VALID,1008.43,VALID,0,VALID,104,VALID,0,VALID,22.194,VALID,319,VALID,0,
2011-01-18, 02:40:04,VALID,1008.44,VALID,0,VALID,104,VALID,0,VALID,22.1745,VALID,319,VALID,0,
2011-01-18, 02:41:04,VALID,1008.47,VALID,0,VALID,104,VALID,0.105969,VALID,22.1923,VALID,319,VALID,0,
2011-01-18, 02:42:04,VALID,1008.5,VALID,0,VALID,104,VALID,0.105969,VALID,22.1923,VALID,319,VALID,0,
2011-01-18, 02:43:04,VALID,1008.52,VALID,0,VALID,104,VALID,0,VALID,22.2134,VALID,319,VALID,0,
2011-01-18, 02:44:04,VALID,1008.52,VALID,0,VALID,104,VALID,0.105969,VALID,22.2118,VALID,319,VALID,0,
2011-01-18, 02:45:04,VALID,1008.52,VALID,0,VALID,104,VALID,0.105969,VALID,22.2524,VALID,319,VALID,0,
2011-01-18, 02:46:04,VALID,1008.52,VALID,0,VALID,104,VALID,0.105969,VALID,22.2719,VALID,319,VALID,0,
2011-01-18, 02:47:04,VALID,1008.5,VALID,0,VALID,104,VALID,0,VALID,22.2312,VALID,319,VALID,0,
2011-01-18, 02:48:04,VALID,1008.52,VALID,0,VALID,104,VALID,0.105969,VALID,22.2118,VALID,319,VALID,0,
2011-01-18, 02:49:04,VALID,1008.5,VALID,0,VALID,104,VALID,0,VALID,22.2118,VALID,319,VALID,0,
2011-01-18, 02:50:04,VALID,1008.55,VALID,0,VALID,104,VALID,0.105969,VALID,22.1923,VALID,319,VALID,0,
2011-01-18, 02:51:04,VALID,1008.57,VALID,0,VALID,104,VALID,0.105969,VALID,22.1533,VALID,319,VALID,0,
2011-01-18, 02:52:04,VALID,1008.54,VALID,0,VALID,104,VALID,0.105969,VALID,22.155,VALID,319,VALID,0,
2011-01-18, 02:53:04,VALID,1008.55,VALID,0,VALID,104,VALID,0.105969,VALID,22.1339,VALID,319,VALID,0,
2011-01-18, 02:54:04,VALID,1008.57,VALID,0,VALID,104,VALID,0.105969,VALID,22.1533,VALID,319,VALID,0,
2011-01-18, 02:55:04,VALID,1008.57,VALID,0,VALID,104,VALID,0.105969,VALID,22.1728,VALID,319,VALID,0,
2011-01-18, 02:56:04,VALID,1008.55,VALID,0,VALID,104,VALID,0.105969,VALID,22.1533,VALID,319,VALID,0,
2011-01-18, 02:57:04,VALID,1008.56,VALID,0,VALID,104,VALID,0.105969,VALID,22.1533,VALID,319,VALID,0,
2011-01-18, 02:58:04,VALID,1008.55,VALID,0,VALID,104,VALID,0.105969,VALID,22.1339,VALID,319,VALID,0,
2011-01-18, 02:59:04,VALID,1008.54,VALID,0,VALID,104,VALID,0.105969,VALID,22.0949,VALID,319,VALID,0,
2011-01-18, 03:00:04,VALID,1008.53,VALID,0,VALID,104,VALID,0,VALID,22.0754,VALID,319,VALID,0,
2011-01-18, 03:01:04,VALID,1008.54,VALID,0,VALID,104,VALID,0,VALID,22.0754,VALID,319,VALID,0,
2011-01-18, 03:02:04,VALID,1008.56,VALID,0,VALID,104,VALID,0.105969,VALID,22.056,VALID,319,VALID,0,
2011-01-18, 03:03:04,VALID,1008.56,VALID,0,VALID,104,VALID,0.105969,VALID,22.0365,VALID,319,VALID,0,
2011-01-18, 03:04:04,VALID,1008.57,VALID,0,VALID,104,VALID,0.105969,VALID,22.0365,VALID,319,VALID,0,
2011-01-18, 03:05:04,VALID,1008.58,VALID,0,VALID,104,VALID,0.105969,VALID,22.017,VALID,319,VALID,0,
2011-01-18, 03:06:04,VALID,1008.54,VALID,0,VALID,104,VALID,0,VALID,22.0187,VALID,319,VALID,0,
2011-01-18, 03:07:04,VALID,1008.55,VALID,0,VALID,104,VALID,0,VALID,22.0187,VALID,319,VALID,0,
2011-01-18, 03:08:04,VALID,1008.53,VALID,0,VALID,104,VALID,0,VALID,22.0398,VALID,319,VALID,0,
2011-01-18, 03:09:04,VALID,1008.53,VALID,0,VALID,104,VALID,0,VALID,22.0398,VALID,319,VALID,0,
2011-01-18, 03:10:04,VALID,1008.52,VALID,0,VALID,104,VALID,0,VALID,22.0187,VALID,319,VALID,0,
2011-01-18, 03:11:04,VALID,1008.49,VALID,0,VALID,104,VALID,0,VALID,22.0187,VALID,319,VALID,0,
2011-01-18, 03:12:04,VALID,1008.54,VALID,0,VALID,104,VALID,0,VALID,22.0382,VALID,319,VALID,0,
2011-01-18, 03:13:04,VALID,1008.51,VALID,0,VALID,104,VALID,0,VALID,22.0593,VALID,319,VALID,0,
2011-01-18, 03:14:04,VALID,1008.47,VALID,0,VALID,104,VALID,0,VALID,22.0593,VALID,319,VALID,0,
2011-01-18, 03:15:04,VALID,1008.46,VALID,0,VALID,104,VALID,0,VALID,22.0382,VALID,319,VALID,0,
2011-01-18, 03:16:04,VALID,1008.44,VALID,0,VALID,104,VALID,0,VALID,22.0187,VALID,319,VALID,0,
2011-01-18, 03:17:04,VALID,1008.42,VALID,0,VALID,104,VALID,0,VALID,22.0204,VALID,319,VALID,0,
2011-01-18, 03:18:04,VALID,1008.43,VALID,0,VALID,104,VALID,0,VALID,21.9797,VALID,319,VALID,0,
2011-01-18, 03:19:04,VALID,1008.4,VALID,0,VALID,104,VALID,0,VALID,21.9797,VALID,319,VALID,0,
2011-01-18, 03:20:04,VALID,1008.41,VALID,0,VALID,104,VALID,0,VALID,21.9603,VALID,319,VALID,0,
2011-01-18, 03:21:04,VALID,1008.37,VALID,0,VALID,104,VALID,0,VALID,21.9603,VALID,319,VALID,0,
2011-01-18, 03:22:04,VALID,1008.37,VALID,0,VALID,104,VALID,0,VALID,21.9603,VALID,319,VALID,0,
2011-01-18, 03:23:04,VALID,1008.34,VALID,0,VALID,104,VALID,0,VALID,21.9018,VALID,319,VALID,0,
2011-01-18, 03:24:04,VALID,1008.32,VALID,0,VALID,104,VALID,0,VALID,21.8629,VALID,319,VALID,0,
2011-01-18, 03:25:04,VALID,1008.35,VALID,0,VALID,104,VALID,0,VALID,21.8434,VALID,319,VALID,0,
2011-01-18, 03:26:04,VALID,1008.31,VALID,0,VALID,104,VALID,0,VALID,21.8239,VALID,319,VALID,0,
2011-01-18, 03:27:04,VALID,1008.33,VALID,0,VALID,104,VALID,0,VALID,21.8045,VALID,319,VALID,0,
2011-01-18, 03:28:04,VALID,1008.33,VALID,0,VALID,104,VALID,0,VALID,21.785,VALID,319,VALID,0,
2011-01-18, 03:29:04,VALID,1008.35,VALID,0,VALID,104,VALID,0,VALID,21.746,VALID,319,VALID,0,
2011-01-18, 03:30:04,VALID,1008.36,VALID,0,VALID,104,VALID,0,VALID,21.746,VALID,319,VALID,0,
2011-01-18, 03:31:04,VALID,1008.37,VALID,0,VALID,104,VALID,0,VALID,21.746,VALID,319,VALID,0,
2011-01-18, 03:32:04,VALID,1008.37,VALID,0,VALID,104,VALID,0,VALID,21.746,VALID,319,VALID,0,
2011-01-18, 03:33:04,VALID,1008.38,VALID,0,VALID,104,VALID,0,VALID,21.7655,VALID,319,VALID,0,
2011-01-18, 03:34:04,VALID,1008.39,VALID,0,VALID,104,VALID,0,VALID,21.746,VALID,319,VALID,0,
2011-01-18, 03:35:04,VALID,1008.4,VALID,0,VALID,104,VALID,0,VALID,21.7655,VALID,319,VALID,0,
2011-01-18, 03:36:04,VALID,1008.44,VALID,0,VALID,104,VALID,0,VALID,21.7655,VALID,319,VALID,0,
2011-01-18, 03:37:04,VALID,1008.43,VALID,0,VALID,104,VALID,0,VALID,21.8061,VALID,319,VALID,0,
2011-01-18, 03:38:04,VALID,1008.46,VALID,0,VALID,104,VALID,0,VALID,21.7866,VALID,319,VALID,0,
2011-01-18, 03:39:04,VALID,1008.41,VALID,0,VALID,104,VALID,0,VALID,21.7655,VALID,319,VALID,0,
2011-01-18, 03:40:04,VALID,1008.43,VALID,0,VALID,104,VALID,0,VALID,21.785,VALID,319,VALID,0,
2011-01-18, 03:41:04,VALID,1008.41,VALID,0,VALID,104,VALID,0,VALID,21.7866,VALID,319,VALID,0,
2011-01-18, 03:42:04,VALID,1008.41,VALID,0,VALID,104,VALID,0,VALID,21.7672,VALID,319,VALID,0,
2011-01-18, 03:43:04,VALID,1008.36,VALID,0,VALID,104,VALID,0,VALID,21.7071,VALID,319,VALID,0,
2011-01-18, 03:44:04,VALID,1008.37,VALID,0,VALID,104,VALID,0,VALID,21.7266,VALID,319,VALID,0,
2011-01-18, 03:45:04,VALID,1008.36,VALID,0,VALID,104,VALID,0,VALID,21.7266,VALID,319,VALID,0,
2011-01-18, 03:46:04,VALID,1008.36,VALID,0,VALID,104,VALID,0,VALID,21.7266,VALID,319,VALID,0,
2011-01-18, 03:47:04,VALID,1008.37,VALID,0,VALID,104,VALID,0,VALID,21.746,VALID,319,VALID,0,
2011-01-18, 03:48:04,VALID,1008.35,VALID,0,VALID,104,VALID,0,VALID,21.746,VALID,319,VALID,0,
2011-01-18, 03:49:04,VALID,1008.39,VALID,0,VALID,104,VALID,0,VALID,21.7866,VALID,319,VALID,0,
2011-01-18, 03:50:04,VALID,1008.37,VALID,0,VALID,104,VALID,0,VALID,21.7655,VALID,319,VALID,0,
2011-01-18, 03:51:04,VALID,1008.37,VALID,0,VALID,104,VALID,0,VALID,21.7655,VALID,319,VALID,0,
2011-01-18, 03:52:04,VALID,1008.37,VALID,0,VALID,104,VALID,0,VALID,21.8045,VALID,319,VALID,0,
2011-01-18, 03:53:04,VALID,1008.37,VALID,0,VALID,104,VALID,0,VALID,21.8239,VALID,319,VALID,0,
2011-01-18, 03:54:04,VALID,1008.39,VALID,0,VALID,104,VALID,0,VALID,21.8239,VALID,319,VALID,0,
2011-01-18, 03:55:04,VALID,1008.34,VALID,0,VALID,104,VALID,0,VALID,21.8451,VALID,319,VALID,0,
2011-01-18, 03:56:04,VALID,1008.34,VALID,0,VALID,104,VALID,0,VALID,21.8045,VALID,319,VALID,0,
2011-01-18, 03:57:04,VALID,1008.35,VALID,0,VALID,104,VALID,0,VALID,21.785,VALID,319,VALID,0,
2011-01-18, 03:58:04,VALID,1008.34,VALID,0,VALID,104,VALID,0,VALID,21.7655,VALID,319,VALID,0,
2011-01-18, 03:59:04,VALID,1008.34,VALID,0,VALID,104,VALID,0,VALID,21.7655,VALID,319,VALID,0,
2011-01-18, 04:00:04,VALID,1008.35,VALID,0,VALID,104,VALID,0,VALID,21.7655,VALID,319,VALID,0,
2011-01-18, 04:01:04,VALID,1008.34,VALID,0,VALID,104,VALID,0,VALID,21.746,VALID,319,VALID,0,
2011-01-18, 04:02:04,VALID,1008.37,VALID,0,VALID,104,VALID,0,VALID,21.7266,VALID,319,VALID,0,
2011-01-18, 04:03:04,VALID,1008.38,VALID,0,VALID,104,VALID,0,VALID,21.7266,VALID,319,VALID,0,
2011-01-18, 04:04:04,VALID,1008.39,VALID,0,VALID,104,VALID,0,VALID,21.7266,VALID,319,VALID,0,